Regional Weather Roundup
Issued by NWS San Angelo, TX

Home | Current Version | Previous Version | Text Only | Print | Product List | Glossary On
Versions: 1 2 3 4 5 6 7 8 9 10 11 12 13 14 15 16 17 18 19 20 21 22 23 24 25 26 27 28 29 30 31 32 33 34 35 36 37 38 39 40 41 42 43 44 45 46 47 48 49 50
000
ASUS44 KSJT 270302
RWRSJT
WEST CENTRAL TEXAS REGIONAL WEATHER ROUNDUP
NATIONAL WEATHER SERVICE SAN ANGELO TX
1000 PM CDT WED JUL 26 2017

NOTE: "FAIR" INDICATES FEW OR NO CLOUDS BELOW 12,000 FEET WITH NO
SIGNIFICANT WEATHER AND/OR OBSTRUCTIONS TO VISIBILITY.

TXZ049-054-064>066-071>073-076>078-098-099-113-114-127-128-139-140-
154-155-168>170-270400
...LOCATIONS ACROSS WEST CENTRAL TEXAS...

CITY           SKY/WX    TMP DP  RH WIND       PRES   REMARKS
SAN ANGELO     CLEAR     87  57  35 S5        30.00S
ABILENE        CLEAR     85  59  41 SE8       30.01R
DYESS AFB      NOT AVBL
JUNCTION       CLEAR     86  66  51 S20G28    30.04R
SWEETWATER     CLEAR     85  58  39 SE8       30.06R
BROWNWOOD      CLEAR     86  63  45 SE6       30.01R
COLEMAN        CLEAR     88  60  38 S7        30.01S
SONORA         CLEAR     86  61  42 CALM      30.08R
OZONA          FAIR      86  54  32 SE8       30.06R
BRADY          NOT AVBL
$$

TEXAS PANHANDLE/OKLAHOMA PANHANDLE

CITY           SKY/WX    TMP DP  RH WIND       PRES   REMARKS
AMARILLO       CLOUDY    88  57  34 S12       30.05R
BORGER         LGT RAIN  80  68  66 E10       30.03R
CANADIAN       RAIN      91  64  39 S9        29.97R
DALHART        CLOUDY    73  66  78 VRB5      30.08F
DUMAS          LGT RAIN  76  65  68 N22G35    30.13R
GUYMON         NOT AVBL
HEREFORD       NOT AVBL
PAMPA          NOT AVBL
PERRYTON       CLOUDY    80  69  69 SW13      30.02S
$$

SOUTHERN PANHANDLE/SOUTH PLAINS/ROLLING PLAINS

CITY           SKY/WX    TMP DP  RH WIND       PRES   REMARKS
LUBBOCK        MOCLDY    88  55  32 S15       30.05R
SNYDER         CLEAR     88  58  35 SE10      30.03R
CHILDRESS      PTCLDY    91  60  35 S12       29.96R
SEMINOLE       CLEAR     83  52  33 S7        30.08R
$$

PERMIAN BASIN

CITY           SKY/WX    TMP DP  RH WIND       PRES   REMARKS
MIDLAND        CLEAR     86  56  35 SE8       30.05R
ODESSA         CLEAR     88  53  30 S9        30.06R
WINK           CLEAR     90  53  28 SE10      30.01R
$$

FAR WEST/SOUTHWEST MOUNTAINS/TRANS PECOS

CITY           SKY/WX    TMP DP  RH WIND       PRES   REMARKS
ALPINE         CLEAR     80  55  41 SE8       30.19R
DRYDEN           N/A     90  57  32 E13G22    29.98R
EL PASO        MOCLDY    84  64  50 E5        30.04F
FORT STOCKTON  CLEAR     86  55  34 SE13G21   30.03R
GUADALUPE PASS CLOUDY    75  63  66 NE16      30.21S
MARFA          PTCLDY    75  59  57 E7        30.18R
PECOS          NOT AVBL
$$

DALLAS/FORT WORTH METROPLEX

CITY           SKY/WX    TMP DP  RH WIND       PRES   REMARKS
DFW AIRPORT    CLOUDY    91  70  49 SE12      29.97S
FTW MEACHAM    CLOUDY    91  67  44 SE9       29.97S
DAL-EXECUTIVE  PTCLDY    88  71  57 SE9       29.99R
GRAND PRAIRIE  CLOUDY    89  67  48 SE7       30.00S
ADDISON        CLEAR     90  68  48 SE14G20   29.99S
MESQUITE       CLOUDY    85  71  62 CALM      30.00R
LANCASTER      CLOUDY    85  71  61 SE7       30.00S
$$

NORTH CENTRAL TEXAS

CITY           SKY/WX    TMP DP  RH WIND       PRES   REMARKS
SHRMAN/DENISON CLOUDY    86  71  60 SE12      30.00S
GAINESVILLE    CLOUDY    83  70  65 SE6       30.00S
BRIDGEPORT     CLOUDY    85  67  54 S8        29.99S
DENTON         CLOUDY    85  70  60 SE6       29.97S
WAXAHACHIE     CLEAR     87  71  59 SE8       30.01S
GRANBURY       CLEAR     91  65  42 SE7       29.99S
$$

WESTERN NORTH TEXAS

CITY           SKY/WX    TMP DP  RH WIND       PRES   REMARKS
WICHITA FALLS  CLOUDY    88  66  48 SE13      29.94S
VERNON         CLOUDY    91  57  32 S10       29.95R
BRECKENRIDGE   NOT AVBL
COMANCHE       CLEAR     85  63  47 S7        30.01S
$$

CENTRAL AND SOUTH CENTRAL TEXAS

CITY           SKY/WX    TMP DP  RH WIND       PRES   REMARKS
AUSTIN/BERGSTM PTCLDY    82  72  71 S6        30.02R
WACO           CLEAR     89  68  49 SE8       29.99R
HILLSBORO      CLEAR     88  70  54 SE10      30.00S
TEMPLE         CLEAR     87  70  56 S21G26    30.01R
KILLEEN-GRAY   CLEAR     86  68  54 S13       30.01R
FORT HOOD      CLEAR     86  69  56 S16G24    29.98R
GEORGETOWN     CLEAR     85  70  60 S13       30.04R
LAGO VISTA     FAIR      83  69  61 S7        30.05R
SAN MARCOS     CLEAR     82  63  51 S5        30.04R
NEW BRAUNFELS  CLEAR     80  67  64 S5        30.02R
RANDOLPH AFB   PTCLDY    81  69  67 S7        30.04R
SAN ANTONIO    PTCLDY    82  68  62 SE12      30.04R
STINSON        CLOUDY    82  69  64 SE6       30.02R
PLEASANTON     NOT AVBL
LA GRANGE      PTCLDY    82  75  79 CALM      30.01S
GIDDINGS       PTCLDY    81  71  71 SW6       30.04R
$$

EAST TEXAS

CITY           SKY/WX    TMP DP  RH WIND       PRES   REMARKS
PARIS            N/A     83  74  74 S8        30.02R
CLARKSVILLE    NOT AVBL
TYLER          CLOUDY    86  73  65 S8        30.03R
LONGVIEW       CLOUDY    82  75  79 S5        30.03R
PALESTINE      CLEAR     86  74  68 SE7       30.03R
NACOGDOCHES    CLEAR     82  73  74 SE5       30.03R
$$

TEXAS HILL COUNTRY AND EDWARDS PLATEAU

CITY           SKY/WX    TMP DP  RH WIND       PRES   REMARKS
LLANO          NOT AVBL
HORSESHOE BAY  FAIR      84  64  50 S12G17    30.02R
KERRVILLE      CLEAR     79  68  69 S9        30.08R
FREDERICKSBRG  CLEAR     81  64  55 S8        30.07R
ROCKSPRINGS    NOT AVBL
HONDO          PTCLDY    83  69  62 SE13      30.04R
UVALDE         PTCLDY    83  69  63 SE16G24   30.03R
DEL RIO        CLEAR     91  64  40 SE15G26   29.94R
$$

SOUTHEAST TEXAS

CITY           SKY/WX    TMP DP  RH WIND       PRES   REMARKS
COLLEGE STN    CLEAR     85  72  65 S10       30.02S
CALDWELL       NOT AVBL
CROCKETT       NOT AVBL
BRENHAM        CLEAR     84  73  68 CALM      30.03S
HUNTSVILLE     CLEAR     86  73  65 S3        30.04R
CONROE         PTCLDY    82  75  79 SE7       30.04R
HOUSTON BUSH   PTCLDY    85  73  67 S6        30.03F
HOUSTON HOBBY  PTCLDY    84  73  69 S6        30.04S
PERLAND        CLEAR     84  74  71 S3        30.06R
WHARTON        CLEAR     79  73  83 SE6       30.04R
$$

THE UPPER TEXAS COAST

CITY           SKY/WX    TMP DP  RH WIND       PRES   REMARKS
ORANGE         CLEAR     81  77  89 S3        30.08S
PORT ARTHUR    CLEAR     79  75  87 CALM      30.06R
GALVESTON      CLEAR     84  77  79 S7        30.06S
ANGLETON       CLEAR     80  76  87 SE6       30.05S
BAY CITY       CLEAR     80  76  89 CALM      30.04S
$$

TEXAS COASTAL BEND, RIO GRANDE PLAINS DEEP SOUTH TEXAS

CITY           SKY/WX    TMP DP  RH WIND       PRES   REMARKS
VICTORIA       CLEAR     82  71  69 S8        30.04R
BEEVILLE       FAIR      82  75  79 SE7       30.03R
ROCKPORT       CLEAR     83  73  72 SE13G22   30.03S
PORT ARANSAS   CLEAR     83  74  74 SE14      30.04R
PORT LAVACA    CLEAR     79  73  82 S6        30.04R
CORPUS CHRISTI PTCLDY    81  76  84 SE10      30.03R
KINGSVILLE NAS PTCLDY    80  76  87 SE7       30.03R
COTULLA        PTCLDY    79  73  82 SE8       30.01R
LAREDO         CLEAR     86  69  56 SE20      30.00R
BROWNSVILLE    PTCLDY    81  74  79 SE12      30.05R
PORT ISABEL    PTCLDY    83  77  82 SE15      30.04R
HEBBRONVILLE   CLEAR     79  70  73 S12       30.04R
MCALLEN        CLEAR     84  72  67 SE14      30.04R
WESLACO        CLEAR     82  74  78 S10       30.03R
FALFURRIAS     PTCLDY    80  73  79 SE8       30.03R
EDINBURG       CLEAR     81  74  79 SE5       30.04R
$$




USA.gov is the U.S. government's official web portal to all federal, state and local government web resources and services.